Location: Abbewier
(53.3833°N, 6.1500°E)
Time: 21:29:15
(UTC+00:00)

Daily predictions for brighter satellites

Satellite Brightness Start Highest point End
(mag) Time Altitude Azimuth Time Altitude Azimuth Time Altitude Azimuth
Cosmos 2233 Rocket 4.1 17:05:42 10° N 17:11:54 58° ENE 17:18:06 10° SSE
Meteor 2-16 Rocket 4.4 17:07:04 10° S 17:13:08 74° E 17:19:12 10° NNE
Cosmos 1900 4.4 17:08:15 10° SSW 17:13:20 75° SE 17:18:23 10° NE
Cosmos 1441 Rocket 3.4 17:14:23 10° SSW 17:17:42 62° WNW 17:21:00 10° N
SJ-6B 4.2 17:16:00 10° E 17:17:55 14° ENE 17:19:51 10° NNE
Cosmos 1867 3.7 17:14:01 10° SSW 17:19:24 66° SE 17:24:50 10° NE
Cosmos 1725 Rocket 4.1 17:13:10 10° N 17:19:27 86° E 17:25:44 10° S
CARTOSAT-1 4.3 17:16:19 10° SE 17:20:01 31° ENE 17:23:44 10° N
USA 267 3.4 17:13:31 10° ENE 17:20:04 69° SSE 17:26:35 10° SW
Aureole 3 Rocket 3.6 17:16:59 10° N 17:20:51 30° ENE 17:23:57 10° SE
NOSS 0 Rocket 4.0 17:16:07 10° NNW 17:22:26 82° NE 17:28:41 10° SE
Cosmos 2322 4.0 17:18:10 10° NW 17:23:53 75° WSW 17:29:34 10° SSE
Cosmos 192 4.4 17:19:39 10° NNW 17:24:34 90° SW 17:29:27 10° SSE
SJ-12 4.0 17:20:52 10° S 17:24:40 74° WSW 17:28:29 10° NNW
UNK 3.8 17:21:04 10° NNE 17:25:40 87° WNW 17:30:14 10° SSW
SL-08 R/B 4.4 17:19:45 10° N 17:25:59 79° ENE 17:32:05 10° SSE
Cosmos 2151 Rocket 3.6 17:25:18 10° N 17:29:50 77° ENE 17:34:20 10° SSE
SL-16 R/B 3.2 17:25:41 10° NNW 17:30:29 27° NE 17:35:17 10° E
Cosmos 1814 Rocket 4.0 17:28:18 10° SSW 17:33:33 70° ESE 17:38:46 10° NNE
Meteor 1-31 Rocket 4.4 17:32:45 11° ENE 17:33:34 12° ENE 17:34:54 10° NNE
Cosmos 2227 Rocket 3.8 17:32:09 10° ESE 17:34:45 13° E 17:36:55 11° ENE
SAR-Lupe-1 4.0 17:32:50 10° SSE 17:36:24 85° ENE 17:40:00 10° NNW
Cosmos 1315 Rocket 3.0 17:33:15 10° NNW 17:37:03 71° W 17:40:49 10° S
ATLAS 5 CENTAUR R/B 3.9 17:33:24 10° WNW 17:37:06 28° SW 17:41:29 10° S
Cosmos 2061 Rocket 4.0 17:30:46 10° N 17:37:12 74° ENE 17:43:30 10° SSE
Cosmos 1125 Rocket 3.4 17:31:59 10° NNW 17:37:12 76° ENE 17:42:24 10° SSE
Cosmos 1607 4.0 17:32:42 10° SSW 17:38:44 62° SE 17:44:51 10° NE
SL-16 R/B 3.5 17:35:12 10° N 17:41:07 49° WNW 17:47:03 10° SW
Cosmos 1455 Rocket 3.5 17:37:42 10° N 17:41:44 37° ENE 17:45:43 10° SE
ARIANE 6 FM1 Upper Stage 3.6 17:38:21 10° NW 17:41:55 30° NNE 17:44:43 14° ENE
DNEPR-1 R/B 4.1 17:40:01 10° NW 17:44:30 49° NE 17:49:46 10° ESE
CZ-4C R/B 2.0 17:40:20 10° SSW 17:44:33 55° SE 17:49:59 10° NE
USA 306 4.2 17:42:34 10° W 17:44:41 18° SW 17:46:21 10° S
BREEZE-M DEB (TANK) 3.9 17:40:34 10° W 17:44:42 49° SSW 17:50:53 10° SE
NOSS 3-3 (C) 4.1 17:40:10 10° SSW 17:45:11 46° ESE 17:51:09 10° NE
Cosmos 1975 Rocket 4.4 17:43:12 10° SE 17:46:06 18° E 17:49:00 10° NE
YAOGAN 1 2.5 17:43:21 10° SSE 17:47:36 82° ENE 17:51:54 10° NNW
Cosmos 158 Rocket 3.8 17:43:29 10° SSW 17:48:20 84° ESE 17:53:15 10° NNE
SeaSat 1 3.4 17:44:51 10° SSE 17:49:37 51° WSW 17:54:24 10° NW
Cosmos 1464 Rocket 4.5 17:44:18 10° N 17:50:14 38° ENE 17:56:05 10° SE
SAR-Lupe-4 4.1 17:49:03 10° S 17:52:34 62° WSW 17:56:09 10° NNW
COSMO-SKYMED 1 2.7 17:51:08 10° NNE 17:55:08 46° E 17:59:06 10° S
Cosmos 2228 3.7 17:51:35 10° N 17:55:17 30° ENE 17:59:00 10° SE
NOAA 6 4.0 17:50:26 10° SSE 17:55:32 67° ENE 18:00:41 10° NNW
Okean 1 Rocket 3.0 17:51:39 10° NNW 17:56:06 89° WSW 18:00:27 10° S
Spot 4 Rocket 4.0 17:51:01 10° SSE 17:56:06 81° ENE 18:01:15 10° NNW
CZ-4 R/B 2.8 17:58:01 16° ENE 17:58:01 16° ENE 18:00:18 10° NNE
PSLV R/B 3.3 17:54:06 10° SSE 17:58:12 69° ENE 18:02:17 10° N
Okean 2 Rocket 3.3 17:54:01 10° NNW 17:58:26 75° W 18:02:47 10° S
CZ-4B R/B 4.5 17:58:27 16° ENE 18:00:16 19° NE 18:03:54 10° N
Cosmos 2221 Rocket 3.6 17:56:27 10° S 18:00:51 63° E 18:05:20 10° NNE
Meteor 1-11 4.3 17:56:14 10° SSW 18:01:53 85° WNW 18:07:41 10° NNE
ARIANE 5 R/B 4.1 17:57:10 10° SSW 18:01:55 38° W 18:06:39 10° NNW
SPOT 5 3.8 18:00:21 14° ESE 18:03:49 29° ENE 18:08:09 10° N
BREEZE-M (TANK) 3.7 18:04:21 10° WSW 18:06:41 31° S 18:11:39 10° SE
Cosmos 1378 Rocket 4.3 18:04:03 10° SSW 18:08:16 53° WNW 18:12:30 10° N
Radarsat Rocket 4.1 18:03:23 10° SSE 18:09:17 83° WSW 18:15:43 10° NNW
RESURS DK-1 4.2 18:08:28 10° N 18:10:47 15° NNE 18:11:22 14° NE
CZ-2D R/B 3.7 18:07:32 10° S 18:11:26 66° WSW 18:15:28 10° NNW
Sich 1 Rocket 4.0 18:07:04 10° NNW 18:11:36 70° W 18:16:08 10° S
Cosmos 2082 Rocket 4.4 18:08:38 10° NW 18:12:05 16° NNW 18:15:33 10° NNE
NOSS 3-3 (A) 3.7 18:07:23 10° SW 18:12:38 73° SE 18:18:18 13° NE
ATLAS CENTAUR R/B 2.9 18:14:36 10° N 18:15:44 12° NNE 18:15:56 12° NNE
CSL-04 Rocket 4.1 18:11:33 12° SE 18:15:56 37° ENE 18:20:46 10° N
IRAS Rocket 4.2 18:12:17 10° SSE 18:17:51 70° ENE 18:23:28 10° NNW
SKYMED 2 3.9 18:13:47 10° N 18:18:08 68° WNW 18:22:27 10° SSW
Cosmos 2297 Rocket 2.3 18:13:04 10° S 18:18:34 55° ESE 18:24:06 10° NE
Cosmos 1943 4.3 18:14:51 10° NNW 18:19:38 26° NE 18:21:38 22° ENE
Cosmos 1025 Rocket 3.3 18:16:42 10° SSW 18:20:59 69° WNW 18:25:20 10° N
Cosmos 2150 Rocket 3.9 18:16:39 10° NNW 18:21:49 68° ENE 18:26:56 10° SE
Resurs 01 Rocket 1.5 18:19:20 10° SSE 18:23:44 88° E 18:28:11 10° NNW
Cosmos 2298 Rocket 4.0 18:18:53 10° NNW 18:24:11 68° ENE 18:29:28 10° SE
NOSS 3-4 (A) 3.9 18:22:55 10° NW 18:29:27 80° SW 18:37:14 10° SE
NOSS 3-4 (C) 3.9 18:23:10 10° NW 18:29:45 80° SW 18:37:32 10° SE
USA 290 4.3 18:28:12 10° WSW 18:31:00 27° NW 18:33:48 10° N
Cosmos 2344 4.2 18:24:46 10° S 18:31:05 28° ESE 18:32:55 25° E
Cosmos 1782 2.7 18:27:38 10° N 18:31:08 45° ENE 18:31:36 42° E
CRYOSAT 2 4.2 18:29:42 10° N 18:34:37 77° E 18:39:30 10° S
Lacrosse 5 rocket 1.4 18:40:44 10° W 18:44:13 52° NNW 18:44:56 43° NNE
CZ-4B R/B 3.7 18:43:54 41° SE 18:45:03 61° ENE 18:48:54 10° N
ATLAS 2AS CENTAUR R/B 3.7 18:41:03 10° WNW 18:47:20 36° N 18:51:31 19° NE
Cosmos 2263 Rocket 3.5 18:44:04 10° SSE 18:46:41 22° SE 18:46:41 22° SE
Cosmos 2237 Rocket 3.2 18:44:30 10° NW 18:49:56 47° WSW 18:55:20 10° S
Terra 2.9 18:51:39 27° NE 18:51:39 27° NE 18:54:48 10° N
SJ-6B 2.8 18:47:28 10° S 18:50:52 63° WSW 18:54:19 10° NNW
TSX-5 4.4 18:47:10 10° NNW 18:52:37 57° NE 18:53:39 47° E
Okean O Rocket 3.6 19:01:58 16° NNE 19:01:58 16° NNE 19:03:16 10° N
Cosmos 44 Rocket 3.4 18:56:50 10° SSW 19:01:40 57° SE 19:02:16 53° E
USA 267 3.3 18:59:49 31° ENE 19:03:11 72° NNW 19:09:42 10° W
ERS-1 Rocket 3.4 19:04:25 42° NE 19:04:25 42° NE 19:08:47 10° N
Meteor 1-31 Rocket 2.9 19:06:45 57° NNW 19:06:45 57° NNW 19:09:35 10° NNW
Cosmos 1816 Rocket 4.3 19:00:09 10° S 19:06:17 72° E 19:12:29 10° NNE
Cosmos 2034 Rocket 3.8 19:01:22 10° N 19:07:34 80° ENE 19:13:44 10° SSE
ADEOS 3.6 19:12:55 56° ENE 19:13:04 56° ENE 19:18:10 10° N
Cosmos 1544 Rocket 3.3 19:09:53 10° N 19:14:14 85° ENE 19:14:21 83° SE
SL-16 R/B 2.1 19:09:36 10° NNW 19:15:19 88° WSW 19:17:18 43° SSE
Cosmos 1634 Rocket 4.0 19:09:39 10° N 19:15:54 57° ENE 19:17:03 50° ESE
Cosmos 2227 Rocket 2.1 19:12:07 10° SSW 19:17:42 67° ESE 19:18:49 54° ENE
Cosmos 1570 Rocket 4.3 19:15:15 10° SW 19:20:30 65° WNW 19:25:07 13° NNE
ARIANE 6 FM1 Upper Stage 2.8 19:17:20 10° NW 19:20:45 64° WNW 19:20:45 64° WNW
Cosmos 1975 Rocket 3.4 19:19:03 10° SSW 19:23:21 63° WNW 19:27:40 10° N
CZ-4 R/B 2.6 19:33:01 34° NNW 19:33:01 34° NNW 19:35:19 10° NNW
CZ-4C R/B 2.9 19:28:20 10° W 19:32:56 45° NNW 19:35:03 32° NNE
NOSS 3-3 (C) 4.4 19:30:28 10° WSW 19:35:57 57° NNW 19:38:49 32° NNE
MetOp-B 4.0 19:39:24 76° NNE 19:39:24 76° NNE 19:44:31 10° NNW
Cosmos 2279 Rocket 4.1 19:33:42 10° N 19:39:07 55° NE 19:39:07 55° NE
CZ-4B R/B 3.0 19:40:18 82° NNE 19:40:18 82° NNE 19:45:28 10° NNW
Cosmos 2208 Rocket 4.4 19:35:09 10° SW 19:40:21 62° WNW 19:43:22 26° NNE
SPOT 5 3.5 19:39:23 32° SSW 19:41:27 54° W 19:46:29 10° NNW
MOS 1 4.2 19:43:58 74° S 19:44:32 88° WSW 19:50:16 10° NNW
CZ-4B DEB 4.4 19:43:20 44° S 19:45:00 67° WSW 19:50:28 10° NNW
RESURS DK-1 4.3 19:45:04 10° NNW 19:46:38 22° NNW 19:46:38 22° NNW
Cosmos 972 Rocket 4.2 19:46:07 10° NNW 19:50:16 63° NNW 19:50:16 63° NNW
Cosmos 2082 Rocket 4.4 19:55:48 10° NNW 19:58:40 14° N 19:59:23 14° NNE
Cosmos 2297 Rocket 3.5 19:57:35 10° WSW 20:02:51 38° NW 20:06:06 21° NNE
Cosmos 1943 3.5 19:58:41 10° NNW 20:03:26 63° NNW 20:03:26 63° NNW
Lacrosse 5 rocket 4.2 20:17:54 10° WNW 20:18:23 13° WNW 20:18:23 13° WNW
Tsikada Rocket 4.3 20:27:17 60° WNW 20:27:17 60° WNW 20:33:13 10° N
Terra 3.6 20:30:15 27° NW 20:30:15 27° NW 20:32:39 10° NNW
Cosmos 2263 Rocket 4.1 20:26:41 10° SW 20:28:28 21° SW 20:28:28 21° SW
Okean O Rocket 4.3 20:39:13 15° NNW 20:39:13 15° NNW 20:40:01 10° NNW
ATLAS 2AS CENTAUR R/B 3.6 20:33:21 10° NW 20:38:56 40° N 20:38:56 40° N
Cosmos 2344 3.7 20:37:04 10° SW 20:43:00 58° WSW 20:43:00 58° WSW
USA 267 3.7 20:47:08 58° NW 20:47:08 58° NW 20:52:30 10° WNW
SL-16 R/B 4.4 20:54:50 10° WNW 20:58:38 19° W 20:59:12 18° WSW
Cosmos 2227 Rocket 3.9 20:57:06 10° WSW 21:00:43 29° WNW 21:00:43 29° WNW
CZ-4C R/B 4.2 21:17:34 10° WNW 21:20:01 23° NW 21:20:01 23° NW
